| time (UTC) | temp F | wind direction | speed knots | gust knots | rain 1hr in | rain 24hr in | rain mn in | humidity % | barometer mb |
| 20260903085355 | 56 | 57 | 0.0 | 15.6 | 0.00 | 0.00 | 0.00 | 62 | |
| 20260903084354 | 56 | 50 | 0.0 | 7.0 | 0.00 | 0.00 | 0.00 | 60 | |
| 20260903083353 | 58 | 63 | 7.0 | 10.4 | 0.00 | 0.00 | 0.00 | 59 | |
| 20260903082353 | 58 | 59 | 0.9 | 10.4 | 0.00 | 0.00 | 0.00 | 59 | |
| 20260903081352 | 59 | 60 | 2.6 | 7.8 | 0.00 | 0.00 | 0.00 | 56 | |
| 20260903080352 | 59 | 64 | 0.0 | 9.6 | 0.00 | 0.00 | 0.00 | 56 | |
| 20260903075351 | 58 | 54 | 1.7 | 16.5 | 0.00 | 0.00 | 0.00 | 57 | |
| 20260903074350 | 58 | 54 | 8.7 | 15.6 | 0.00 | 0.00 | 0.00 | 57 | |
| 20260903073350 | 58 | 53 | 2.6 | 16.5 | 0.00 | 0.00 | 0.00 | 55 | |
| 20260903072349 | 57 | 63 | 2.6 | 10.4 | 0.00 | 0.00 | 0.00 | 57 | |
| 20260903070358 | 54 | 49 | 0.0 | 11.3 | 0.00 | 0.00 | 0.00 | 62 | |
| 20260903065358 | 53 | 63 | 9.6 | 13.9 | 0.00 | 0.00 | 0.00 | 65 | |
| 20260903064357 | 52 | 43 | 6.1 | 15.6 | 0.00 | 0.00 | 0.00 | 67 | |
| 20260903063357 | 52 | 60 | 5.2 | 12.2 | 0.00 | 0.00 | 0.00 | 68 | |
| 20260903062356 | 52 | 15 | 0.0 | 13.0 | 0.00 | 0.00 | 0.00 | 68 | |
| 20260903061356 | 52 | 57 | 5.2 | 12.2 | 0.00 | 0.00 | 0.00 | 71 | |
| 20260903060355 | 51 | 49 | 0.0 | 11.3 | 0.00 | 0.00 | 0.00 | 72 | |
| 20260903055354 | 51 | 61 | 2.6 | 7.8 | 0.00 | 0.00 | 0.00 | 75 | |
| 20260903054354 | 50 | 54 | 5.2 | 10.4 | 0.00 | 0.00 | 0.00 | 77 | |
| 20260903053353 | 50 | 70 | 5.2 | 13.9 | 0.00 | 0.00 | 0.00 | 77 | |
| 20260902174621 | 51 | 52 | 2.6 | 4.3 | 0.00 | 0.00 | 0.00 | 94 | |
| 20260902173620 | 51 | 56 | 4.3 | 4.3 | 0.00 | 0.00 | 0.00 | 93 | |
| 20260902173226 | 51 | 57 | 2.6 | 3.5 | 0.00 | 0.00 | 0.00 | 93 | |
| 20260902172620 | 51 | 57 | 2.6 | 3.5 | 0.00 | 0.00 | 0.00 | 93 | |
| 20260902171619 | 51 | 45 | 0.0 | 4.3 | 0.00 | 0.00 | 0.00 | 93 | |
| 20260902170619 | 52 | 88 | 0.0 | 0.9 | 0.00 | 0.00 | 0.00 | 92 | |
| 20260902165618 | 54 | 66 | 0.0 | 0.0 | 0.00 | 0.00 | 0.00 | 100 | |
| 20260902164618 | 54 | 66 | 0.0 | 0.0 | 0.00 | 0.00 | 0.00 | 100 | |
| 20260902163617 | 56 | 66 | 0.0 | 0.0 | 0.00 | 0.00 | 0.00 | 79 | |
| 20260902162616 | 59 | 66 | 0.0 | 0.0 | 0.00 | 0.00 | 0.00 | 74 | |
| 20260902161616 | 62 | 66 | 0.0 | 0.0 | 0.00 | 0.00 | 0.00 | 67 | |
| 20260902160615 | 64 | 66 | 0.0 | 0.0 | 0.00 | 0.00 | 0.00 | 60 | |
| 20260902155615 | 68 | 66 | 0.0 | 0.0 | 0.00 | 0.00 | 0.00 | 55 | |
| 20260902154614 | 0 | 66 | 52.1 | 0.0 | 0.00 | 0.00 | 0.00 | ||
| 20260902153613 | 68 | 66 | 0.0 | 0.0 | 0.00 | 0.00 | 0.00 | 53 | |
| 20260902152615 | 68 | 66 | 0.0 | 0.0 | 0.00 | 0.00 | 0.00 | 52 | |
| 20260902151614 | 68 | 66 | 0.0 | 0.0 | 0.00 | 0.00 | 0.00 | 53 | |
| 20260902150612 | 69 | 66 | 0.0 | 5.2 | 0.00 | 0.00 | 0.00 | 46 | |
| 20260902145613 | 71 | 75 | 0.0 | 0.0 | 0.00 | 0.00 | 0.00 | 51 | |
| 20260902144610 | 71 | 75 | 0.0 | 1.7 | 0.00 | 0.00 | 0.00 | 100 | |
| 20260902143610 | 72 | 75 | 0.0 | 0.0 | 0.00 | 0.00 | 0.00 | 49 | |
| 20260902142609 | 71 | 75 | 0.0 | 0.0 | 0.00 | 0.00 | 0.00 | 50 | |
| 20260902141609 | 72 | 75 | 0.0 | 5.2 | 0.00 | 0.00 | 0.00 | 49 | |
| 20260902140608 | 74 | 180 | 0.0 | 0.0 | 0.00 | 0.00 | 0.00 | 45 | |
| 20260902135608 | 74 | 180 | 0.0 | 0.0 | 0.00 | 0.00 | 0.00 | 45 | |
| 20260902134607 | 72 | 180 | 0.0 | 0.0 | 0.00 | 0.00 | 0.00 | 48 | |
| 20260902133606 | 70 | 180 | 0.0 | 0.0 | 0.00 | 0.00 | 0.00 | 49 | |
| 20260902132101 | 73 | 54 | 0.0 | 0.0 | 0.00 | 0.00 | 0.00 | 48 | |
| 20260902131058 | 73 | 54 | 0.0 | 0.0 | 0.00 | 0.00 | 0.00 | 47 | |
| 20260902130221 | 73 | 54 | 0.0 | 0.0 | 0.00 | 0.00 | 0.00 | 47 | |
| 20260902130059 | 73 | 54 | 0.0 | 0.0 | 0.00 | 0.00 | 0.00 | 47 | |
| 20260902125446 | 72 | 54 | 0.0 | 0.0 | 0.00 | 0.00 | 0.00 | 50 | |
| 20260902125055 | 72 | 54 | 0.0 | 0.0 | 0.00 | 0.00 | 0.00 | 50 | |
| 20260902124057 | 68 | 54 | 0.0 | 0.0 | 0.00 | 0.00 | 0.00 | 53 | |
| 20260902123054 | 68 | 54 | 0.0 | 0.0 | 0.00 | 0.00 | 0.00 | 55 | |
| 20260902122053 | 68 | 54 | 0.0 | 0.0 | 0.00 | 0.00 | 0.00 | 54 | |
| 20260902121053 | 66 | 54 | 0.0 | 0.0 | 0.00 | 0.00 | 0.00 | 60 | |
| 20260902120052 | 64 | 54 | 0.0 | 0.0 | 0.00 | 0.00 | 0.00 | 60 | |
| 20260902115052 | 66 | 54 | 0.0 | 0.0 | 0.00 | 0.00 | 0.00 | 57 | |
| 20260902114051 | 68 | 54 | 0.0 | 0.0 | 0.00 | 0.00 | 0.00 | 100 | |
| 20260902113050 | 67 | 54 | 0.0 | 0.0 | 0.00 | 0.00 | 0.00 | 55 | |
| 20260902112050 | 67 | 54 | 0.0 | 0.0 | 0.00 | 0.00 | 0.00 | 55 | |
| 20260902111049 | 66 | 54 | 0.0 | 0.0 | 0.00 | 0.00 | 0.00 | 55 | |
| 20260902110049 | 66 | 54 | 0.0 | 0.0 | 0.00 | 0.00 | 0.00 | 56 | |
| 20260902105048 | 65 | 54 | 0.0 | 0.0 | 0.00 | 0.00 | 0.00 | 58 | |
| 20260902104047 | 64 | 54 | 0.0 | 0.0 | 0.00 | 0.00 | 0.00 | 60 | |
| 20260902103047 | 64 | 180 | 0.0 | 0.0 | 0.00 | 0.00 | 0.00 | 59 | |
| 20260902102255 | 63 | 180 | 0.0 | 0.0 | 0.00 | 0.00 | 0.00 | 61 | |
| 20260902102046 | 63 | 180 | 0.0 | 0.0 | 0.00 | 0.00 | 0.00 | 61 | |
| 20260902101046 | 62 | 180 | 0.0 | 0.0 | 0.00 | 0.00 | 0.00 | 63 | |
| 20260902100045 | 62 | 180 | 0.0 | 0.0 | 0.00 | 0.00 | 0.00 | 62 | |
| 20260902095045 | 62 | 180 | 0.0 | 0.0 | 0.00 | 0.00 | 0.00 | 61 | |
| 20260902094044 | 65 | 180 | 0.0 | 0.0 | 0.00 | 0.00 | 0.00 | 56 | |
| 20260902093043 | 67 | 180 | 0.0 | 0.0 | 0.00 | 0.00 | 0.00 | 53 | |
| 20260902092043 | 68 | 180 | 0.0 | 0.0 | 0.00 | 0.00 | 0.00 | 52 | |
| 20260902091042 | 68 | 180 | 0.0 | 0.0 | 0.00 | 0.00 | 0.00 | 52 | |
| 20260902090042 | 69 | 180 | 0.0 | 0.0 | 0.00 | 0.00 | 0.00 | 47 |